Weather History for Fort Sill, OK

Change the Weather History Date:

Wednesday, November 13, 2013

  Actual Average Record
Temperature  
Mean Temperature 35 °F -  
Max Temperature 50 °F 63 °F 84 °F (1955)
Min Temperature 20 °F 37 °F 18 °F (1986)
Degree Days  
Heating Degree Days 30    
Moisture  
Dew Point 16 °F    
Average Humidity 50    
Maximum Humidity 77    
Minimum Humidity 22    
Precipitation  
Precipitation 0.00 in - - ()
Sea Level Pressure  
Sea Level Pressure 30.53 in    
Wind  
Wind Speed 5 mph (South)    
Max Wind Speed 13 mph    
Max Gust Speed -    
Visibility 10 miles    
Events      
Averages and records for this station are not official NWS values.
T = Trace of Precipitation, MM = Missing Value Source: NWS Daily Summary

Daily Weather History Graph

Daily Weather History Graph

Search for Another Location

Airport:

Trip Planner

Search our weather history database for the weather conditions in past years. The results will help you decide how hot, cold, wet, or windy it might be!

Date:

Astronomy

Nov. 13, 2013 Rise Set
Actual Time 7:05 AM CST 5:29 PM CST
Civil Twilight 6:39 AM CST 5:56 PM CST
Nautical Twilight 6:08 AM CST 6:26 PM CST
Astronomical Twilight 5:38 AM CST 6:56 PM CST
Moon 3:10 PM CST (11/13) 3:09 AM CST (11/13)
Length of Visible Light 11h 17m
Length of Day
10h 24m
Waxing Gibbous, 85% of the Moon is Illuminated
Nov 13
Waxing Gibbous
Nov 17
Full
Nov 25
Last Quarter
Dec 2
New
Dec 9
First Quarter

Hourly Weather History & Observations

Time (CST) Temp. Windchill Dew Point Humidity Pressure Visibility Wind Dir Wind Speed Gust Speed Precip Events Conditions
12:58 AM 24.1 °F 18.2 °F 13.8 °F 65% 30.71 in 10.0 mi North 4.6 mph - N/A   Clear
1:58 AM 25.2 °F 18.3 °F 13.8 °F 62% 30.70 in 10.0 mi NNW 5.8 mph - N/A   Clear
2:58 AM 24.1 °F - 13.6 °F 64% 30.71 in 10.0 mi Calm Calm - N/A   Clear
3:58 AM 21.0 °F - 13.1 °F 71% 30.69 in 10.0 mi Calm Calm - N/A   Clear
4:58 AM 20.7 °F - 13.3 °F 73% 30.69 in 10.0 mi North 2.3 mph - N/A   Clear
5:58 AM 20.1 °F - 13.8 °F 77% 30.68 in 10.0 mi Calm Calm - N/A   Clear
6:58 AM 21.0 °F - 13.8 °F 74% 30.67 in 10.0 mi Calm Calm - N/A   Clear
7:58 AM 22.3 °F - 16.2 °F 77% 30.67 in 10.0 mi Calm Calm - N/A   Clear
8:58 AM 32.2 °F 25.0 °F 18.1 °F 56% 30.66 in 10.0 mi South 8.1 mph - N/A   Clear
9:58 AM 36.3 °F 30.1 °F 17.8 °F 47% 30.64 in 10.0 mi South 8.1 mph - N/A   Clear
10:58 AM 39.9 °F 35.1 °F 14.5 °F 36% 30.62 in 10.0 mi SSW 6.9 mph - N/A   Clear
11:58 AM 42.6 °F 36.8 °F 14.0 °F 31% 30.59 in 10.0 mi South 10.4 mph - N/A   Clear
12:58 PM 45.7 °F 42.0 °F 13.6 °F 28% 30.53 in 10.0 mi Variable 6.9 mph - N/A   Clear
1:58 PM 48.4 °F - 13.3 °F 24% 30.48 in 10.0 mi SSW 10.4 mph - N/A   Clear
2:58 PM 50.5 °F - 12.9 °F 22% 30.44 in 10.0 mi SSW 12.7 mph - N/A   Clear
3:58 PM 50.0 °F - 13.6 °F 23% 30.43 in 10.0 mi South 9.2 mph - N/A   Clear
4:58 PM 48.2 °F - 12.7 °F 24% 30.41 in 10.0 mi South 12.7 mph - N/A   Clear
5:58 PM 41.9 °F 37.5 °F 13.8 °F 32% 30.39 in 10.0 mi South 6.9 mph - N/A   Clear
6:58 PM 38.8 °F 33.8 °F 15.4 °F 39% 30.38 in 10.0 mi South 6.9 mph - N/A   Clear
7:58 PM 37.9 °F 32.1 °F 16.3 °F 42% 30.38 in 10.0 mi South 8.1 mph - N/A   Clear
8:58 PM 38.8 °F 32.1 °F 19.6 °F 46% 30.37 in 10.0 mi South 10.4 mph - N/A   Clear
9:58 PM 37.0 °F 31.0 °F 22.5 °F 56% 30.34 in 10.0 mi South 8.1 mph - N/A   Clear
10:58 PM 36.3 °F 28.0 °F 23.7 °F 60% 30.33 in 10.0 mi South 12.7 mph - N/A   Clear
11:58 PM 33.3 °F 27.9 °F 23.5 °F 68% 30.31 in 10.0 mi South 5.8 mph - N/A   Clear